Location: Ottawa
(45.4170°N, 75.7000°W)
Time: 18:09:13
(UTC-04:00)

Amateur Radio Satellites - All Passes

Search period start: 06 July 2015 17:39
Search period end: 07 July 2015 17:39
Location: Ottawa, 45.4170°N, 75.7000°W

Satellite Date Start Highest point End Downlink Frequencies (MHz)
Time Altitude Azimuth
O/OREOS (USA 219) 06 Jul 17:49:53 17:54:06 38° 253° (WSW) 17:58:16 437.305
SO-50 06 Jul 17:54:55 17:59:28 41° 315° (NW) 18:04:09 436.795
CUBESAT XI-V 06 Jul 18:00:33 18:02:06 12° 85° (E) 18:03:54 437.345
Cubesat XI-IV 06 Jul 18:01:08 18:06:20 55° 71° (ENE) 18:11:37 437.490
Cosmos 2491 06 Jul 18:02:55 18:09:01 19° 305° (NW) 18:14:44 435.465 / 435.565
GONETS M04 06 Jul 18:18:51 18:23:48 17° 53° (NE) 18:29:12
CUSAT 1 06 Jul 18:28:15 18:30:25 22° 72° (ENE) 18:32:36 437.405
HO-68 06 Jul 18:31:45 18:35:06 14° 48° (NE) 18:38:46 435.675
PCSat 06 Jul 18:52:46 18:54:14 11° 337° (NNW) 18:55:33 145.827
GOMX 1 06 Jul 19:02:50 19:05:40 16° 63° (ENE) 19:08:36 467.674
MOZHAYETS 4 06 Jul 19:03:26 19:06:44 19° 296° (WNW) 19:09:55
CUTE-I 06 Jul 19:06:23 19:11:30 44° 262° (W) 19:16:38 437.470
Cosmos 2504 06 Jul 19:27:59 19:31:56 14° 282° (WNW) 19:35:32 435.465 / 435.565
DOVE 4 06 Jul 19:34:48 19:38:02 19° 65° (ENE) 19:41:16 437.250
CUBESAT XI-V 06 Jul 19:35:32 19:40:15 81° 285° (WNW) 19:44:54 437.345
BRITE-PL 06 Jul 19:37:06 19:42:18 51° 72° (ENE) 19:47:09 437.365/2234.400
SO-50 06 Jul 19:39:13 19:41:22 13° 338° (NNW) 19:43:27 436.795
Cubesat XI-IV 06 Jul 19:42:39 19:46:51 22° 269° (W) 19:50:55 437.490
SEEDS 06 Jul 19:48:48 19:51:25 17° 64° (ENE) 19:54:10 437.485
DANDE 06 Jul 19:49:01 19:51:30 28° 265° (W) 19:53:47 436.750
STRAND 1 06 Jul 19:50:16 19:55:15 48° 99° (E) 20:00:13 437.568
AAUSAT CUBESAT 2 06 Jul 19:54:31 19:56:28 13° 62° (ENE) 19:58:34 437.432
CINEMA 3 06 Jul 20:03:19 20:05:56 16° 64° (ENE) 20:08:40 145.822/145.860
GONETS M04 06 Jul 20:13:59 20:22:43 71° 78° (ENE) 20:31:23
HO-68 06 Jul 20:14:35 20:21:34 61° 68° (ENE) 20:28:37 435.675
COMPASS 1 06 Jul 20:20:58 20:24:29 28° 68° (ENE) 20:28:05 437.405
PRISM 06 Jul 20:23:06 20:27:20 82° 283° (WNW) 20:31:30 437.425
Oscar 11 06 Jul 20:30:10 20:32:40 16° 63° (ENE) 20:35:20 145.826/435.025
CUBEBUG 2 06 Jul 20:35:18 20:37:53 16° 64° (ENE) 20:40:33 437.445
CUTE 1.7 + AOD 2 06 Jul 20:38:20 20:42:29 64° 74° (ENE) 20:46:42 437.475
GOMX 1 06 Jul 20:38:21 20:43:25 72° 258° (WSW) 20:48:09 467.674
Cosmos 2499 06 Jul 20:39:47 20:46:00 26° 64° (ENE) 20:52:49 435.465 / 435.565
CANX-2 06 Jul 20:42:02 20:46:14 78° 76° (ENE) 20:50:29 2200.000
AUBIESAT-1 06 Jul 20:47:02 20:47:41 10° 93° (E) 20:48:36 437.475
FUNcube-1 06 Jul 21:01:31 21:04:20 18° 65° (ENE) 21:07:14 145.935
DOVE 4 06 Jul 21:10:51 21:15:32 53° 260° (W) 21:19:58 437.250
CUBESAT XI-V 06 Jul 21:15:33 21:16:58 11° 302° (WNW) 21:18:09 437.345
BRITE-PL 06 Jul 21:16:49 21:21:03 23° 268° (W) 21:24:58 437.365/2234.400
UWE-3 06 Jul 21:19:41 21:23:31 35° 70° (ENE) 21:27:20 435.000/436.395/437.385
M-CUBED/EXP-1 PRIME 06 Jul 21:21:10 21:24:51 28° 101° (E) 21:28:47 437.505
SEEDS 06 Jul 21:22:46 21:26:51 51° 261° (W) 21:30:59 437.485
DELFI C3 06 Jul 21:26:10 21:29:52 37° 71° (ENE) 21:33:37 145.870
AAUSAT CUBESAT 2 06 Jul 21:27:28 21:31:35 67° 259° (WSW) 21:35:45 437.432
STRAND 1 06 Jul 21:30:02 21:34:13 25° 297° (WNW) 21:38:16 437.568
CINEMA 3 06 Jul 21:38:26 21:42:49 56° 260° (W) 21:47:02 145.822/145.860
DX 1 06 Jul 21:45:41 21:49:03 23° 65° (ENE) 21:52:31 434.975-435.025
VELOX 1 06 Jul 21:47:12 21:49:25 14° 61° (ENE) 21:51:49 145.980
COMPASS 1 06 Jul 21:56:30 22:00:07 28° 266° (W) 22:03:44 437.405
HUMSAT D 06 Jul 21:59:42 22:03:20 32° 69° (ENE) 22:07:01 437.325/437.525
ZACube-1 06 Jul 22:01:07 22:05:18 77° 76° (ENE) 22:09:27 437.345
UKube-1 06 Jul 22:02:16 22:06:01 29° 68° (ENE) 22:09:50 .
HO-68 06 Jul 22:03:43 22:09:49 29° 268° (W) 22:15:46 435.675
Oscar 11 06 Jul 22:04:11 22:08:26 59° 260° (W) 22:12:42 145.826/435.025
CUBEBUG 2 06 Jul 22:10:04 22:14:14 52° 260° (W) 22:18:20 437.445
GONETS M04 06 Jul 22:11:53 22:18:51 27° 278° (W) 22:25:33
CUTE 1.7 + AOD 2 06 Jul 22:16:59 22:18:55 13° 273° (W) 22:20:40 437.475
AUBIESAT-1 06 Jul 22:18:40 22:22:56 89° 290° (WNW) 22:27:30 437.475
CANX-2 06 Jul 22:22:12 22:22:49 10° 275° (W) 22:23:10 2200.000
PCSat 06 Jul 22:23:49 22:26:32 14° 29° (NNE) 22:29:25 145.827
Cosmos 2499 06 Jul 22:32:07 22:39:59 75° 264° (W) 22:48:25 435.465 / 435.565
AISAT 06 Jul 22:32:57 22:37:04 38° 70° (ENE) 22:41:13 437.250
ANTELSAT 06 Jul 22:36:05 22:38:43 16° 90° (E) 22:41:33 437.575/2403.000
FUNcube-1 06 Jul 22:36:22 22:40:23 44° 262° (W) 22:44:23 145.935
CUBEBUG 1 06 Jul 22:43:09 22:46:50 27° 67° (ENE) 22:50:36 437.445
TIGRISAT 06 Jul 22:46:53 22:50:02 20° 92° (E) 22:53:21 435.000
50 SAT 06 Jul 22:50:28 22:54:13 59° 74° (ENE) 22:58:01 437.505
M-CUBED/EXP-1 PRIME 06 Jul 22:55:49 22:59:40 34° 295° (WNW) 23:03:43 437.505
UWE-3 06 Jul 22:56:52 23:00:11 22° 267° (W) 23:03:23 435.000/436.395/437.385
DELFI C3 06 Jul 23:02:08 23:05:07 19° 268° (W) 23:08:01 145.870
SO-50 06 Jul 23:04:14 23:06:57 15° 26° (NNE) 23:09:47 436.795
QB50P2 06 Jul 23:05:04 23:06:52 13° 88° (E) 23:08:52 145.880/145.840
POPSAT HIP 1 06 Jul 23:05:15 23:06:53 12° 88° (E) 23:08:43 437.405
ESTCUBE 1 06 Jul 23:13:55 23:18:24 63° 73° (ENE) 23:22:56 437.505/2401.250
DX 1 06 Jul 23:20:58 23:25:06 40° 262° (W) 23:29:14 434.975-435.025
VELOX 1 06 Jul 23:20:59 23:25:27 74° 257° (WSW) 23:29:56 145.980
UNISAT 6 06 Jul 23:26:56 23:31:15 51° 100° (E) 23:35:38 437.425
SPROUT 06 Jul 23:35:13 23:38:50 27° 68° (ENE) 23:42:31 437.525
HUMSAT D 06 Jul 23:35:50 23:39:09 23° 267° (W) 23:42:24 437.325/437.525
UKube-1 06 Jul 23:38:19 23:42:07 29° 264° (W) 23:45:55 .
QB50P1 06 Jul 23:42:22 23:46:07 30° 96° (E) 23:49:52 145.935-145.965
NANOSAT C BR1 06 Jul 23:55:22 23:59:21 41° 98° (E) 00:03:21 145.865
AUBIESAT-1 06 Jul 23:55:22 23:57:11 12° 304° (NW) 23:58:52 437.475
DUCHIFAT 1 07 Jul 00:01:20 00:05:24 47° 99° (E) 00:09:27 145.980
PCSat 07 Jul 00:05:58 00:11:18 53° 52° (NE) 00:16:36 145.827
TISAT 1 07 Jul 00:06:07 00:10:01 37° 70° (ENE) 00:13:57 437.305
BUGSAT 1 07 Jul 00:06:51 00:10:34 34° 97° (E) 00:14:17 437.445
POLYITAN 1 07 Jul 00:09:45 00:13:56 62° 101° (E) 00:18:07 437.675
AISAT 07 Jul 00:10:09 00:13:46 23° 267° (W) 00:17:20 437.250
ANTELSAT 07 Jul 00:11:34 00:15:53 55° 288° (WNW) 00:20:16 437.575/2403.000
BEESAT 07 Jul 00:11:58 00:12:27 10° 56° (ENE) 00:13:10 436.000
Cosmos 2491 07 Jul 00:14:50 00:18:35 14° 49° (NE) 00:22:52 435.465 / 435.565
CUBEBUG 1 07 Jul 00:19:03 00:23:06 33° 264° (W) 00:27:06 437.445
TIGRISAT 07 Jul 00:22:50 00:27:01 44° 289° (WNW) 00:31:15 435.000
SWISSCUBE 07 Jul 00:25:36 00:28:14 15° 60° (ENE) 00:31:03 437.505
Cosmos 2499 07 Jul 00:27:46 00:32:05 15° 282° (WNW) 00:36:01 435.465 / 435.565
50 SAT 07 Jul 00:27:55 00:29:18 11° 272° (W) 00:30:28 437.505
ITUPSAT 1 07 Jul 00:32:04 00:34:50 16° 60° (ENE) 00:37:47 437.325
QB50P2 07 Jul 00:39:04 00:43:16 63° 286° (WNW) 00:47:25 145.880/145.840
POPSAT HIP 1 07 Jul 00:39:05 00:43:16 65° 286° (WNW) 00:47:26 437.405
SO-50 07 Jul 00:43:45 00:48:39 54° 48° (NE) 00:53:28 436.795
ESTCUBE 1 07 Jul 00:53:08 00:55:46 15° 272° (W) 00:58:14 437.505/2401.250
UNISAT 6 07 Jul 01:04:38 01:07:43 18° 296° (WNW) 01:10:42 437.425
SPROUT 07 Jul 01:11:00 01:14:51 31° 265° (W) 01:18:40 437.525
QB50P1 07 Jul 01:18:20 01:21:53 26° 293° (WNW) 01:25:22 145.935-145.965
NANOSAT C BR1 07 Jul 01:31:49 01:34:57 20° 295° (WNW) 01:37:59 145.865
RS-15 07 Jul 01:36:13 01:45:59 42° 110° (ESE) 01:56:13 29.354- 29.394
DUCHIFAT 1 07 Jul 01:37:59 01:40:53 18° 296° (WNW) 01:43:41 145.980
TISAT 1 07 Jul 01:42:37 01:45:55 21° 267° (W) 01:49:09 437.305
BUGSAT 1 07 Jul 01:42:43 01:45:52 22° 294° (WNW) 01:48:56 437.445
BEESAT 07 Jul 01:44:45 01:49:30 71° 73° (ENE) 01:54:18 436.000
POLYITAN 1 07 Jul 01:47:01 01:49:24 15° 298° (WNW) 01:51:39 437.675
PCSat 07 Jul 01:49:58 01:54:26 26° 250° (WSW) 01:58:47 145.827
SWISSCUBE 07 Jul 02:00:45 02:05:33 76° 257° (WSW) 02:10:23 437.505
AIST 1 07 Jul 02:02:35 02:06:16 26° 71° (ENE) 02:09:59
ITUPSAT 1 07 Jul 02:07:25 02:12:12 73° 257° (WSW) 02:17:03 437.325
Cosmos 2491 07 Jul 02:09:18 02:17:56 60° 75° (ENE) 02:26:32 435.465 / 435.565
KKS-1 07 Jul 02:16:08 02:19:52 27° 67° (ENE) 02:23:40 437.445
SO-50 07 Jul 02:24:55 02:28:54 24° 247° (WSW) 02:32:44 436.795
Oscar 19 07 Jul 02:27:34 02:32:39 61° 101° (E) 02:37:44 437.125/150
JAS-2 07 Jul 02:41:03 02:42:20 11° 82° (E) 02:44:13 435.910
YUBILEINY 07 Jul 02:45:17 02:53:01 39° 87° (E) 03:00:55 435.215
ITAMSAT 1 07 Jul 02:45:37 02:49:55 26° 93° (E) 02:54:17 435.822/435.867
Gurwin Techsat 1B 07 Jul 02:55:08 02:59:56 34° 95° (E) 03:04:46 435.225
STARS 07 Jul 03:00:46 03:04:58 46° 71° (ENE) 03:09:12 437.465
BEESAT 07 Jul 03:25:18 03:27:56 14° 272° (W) 03:30:21 436.000
AIST 1 07 Jul 03:40:07 03:43:56 29° 270° (W) 03:47:38
RS-15 07 Jul 03:47:03 03:57:56 65° 314° (NW) 04:09:16 29.354- 29.394
KKS-1 07 Jul 03:52:22 03:56:25 33° 264° (W) 04:00:26 437.445
Cosmos 2491 07 Jul 04:06:50 04:14:25 33° 276° (W) 04:21:45 435.465 / 435.565
Oscar 19 07 Jul 04:07:52 04:11:37 20° 298° (WNW) 04:15:13 437.125/150
Cosmos 2504 07 Jul 04:19:37 04:22:17 13° 77° (ENE) 04:25:24 435.465 / 435.565
JAS-2 07 Jul 04:22:02 04:28:40 62° 101° (E) 04:36:05 435.910
ITAMSAT 1 07 Jul 04:24:40 04:29:38 44° 291° (WNW) 04:34:33 435.822/435.867
MOZHAYETS 4 07 Jul 04:29:09 04:33:41 65° 74° (ENE) 04:38:16
Gurwin Techsat 1B 07 Jul 04:35:06 04:39:56 35° 293° (WNW) 04:44:42 435.225
STARS 07 Jul 04:38:33 04:41:42 18° 269° (W) 04:44:43 437.465
AO-7 07 Jul 04:39:30 04:47:27 46° 99° (E) 04:55:24 29.400- 29.500
YUBILEINY 07 Jul 04:41:18 04:49:43 51° 288° (WNW) 04:58:07 435.215
HORYU 2 07 Jul 04:42:19 04:46:40 50° 100° (E) 04:51:02 437.375
CUBESAT XI-V 07 Jul 05:05:38 05:08:29 17° 62° (ENE) 05:11:31 437.345
STRAND 1 07 Jul 05:32:28 05:34:50 14° 57° (ENE) 05:37:26 437.568
PRISM 07 Jul 05:42:59 05:44:12 11° 60° (ENE) 05:45:36 437.425
RS-15 07 Jul 06:03:26 06:13:04 31° 345° (NNW) 06:23:00 29.354- 29.394
Cosmos 2504 07 Jul 06:06:28 06:13:21 79° 97° (E) 06:20:22 435.465 / 435.565
JAS-2 07 Jul 06:07:49 06:13:28 30° 296° (WNW) 06:19:28 435.910
MOZHAYETS 4 07 Jul 06:08:52 06:11:27 14° 273° (W) 06:13:50
Cubesat XI-IV 07 Jul 06:17:13 06:20:45 18° 89° (E) 06:24:27 437.490
HORYU 2 07 Jul 06:19:46 06:23:00 19° 296° (WNW) 06:26:07 437.375
O/OREOS (USA 219) 07 Jul 06:26:19 06:29:17 18° 102° (ESE) 06:32:25 437.305
AO-7 07 Jul 06:32:25 06:40:19 47° 299° (WNW) 06:48:07 29.400- 29.500
CUBESAT XI-V 07 Jul 06:40:47 06:45:28 66° 259° (W) 06:50:12 437.345
ISS 07 Jul 06:46:24 06:48:08 14° 134° (SE) 06:49:57 145.825
YUBILEINY 07 Jul 06:46:49 06:49:24 11° 314° (NW) 06:51:24 435.215
VERMONT LUNAR 07 Jul 06:55:25 06:57:28 16° 159° (SSE) 06:59:33 437.305
BEESAT 3 07 Jul 06:58:30 07:02:28 53° 121° (ESE) 07:06:29 437.485
STRAND 1 07 Jul 07:08:11 07:13:20 85° 76° (ENE) 07:18:33 437.568
BEESAT 2 07 Jul 07:14:50 07:18:53 62° 122° (ESE) 07:22:59 435.950
PRISM 07 Jul 07:14:51 07:19:03 84° 256° (WSW) 07:23:17 437.425
AIST 2 07 Jul 07:16:25 07:19:15 18° 112° (ESE) 07:22:12 435.215
DANDE 07 Jul 07:17:41 07:22:57 26° 94° (E) 07:27:21 436.750
CUTE-I 07 Jul 07:20:53 07:26:14 64° 101° (E) 07:31:32 437.470
GONETS M04 07 Jul 07:25:55 07:30:22 16° 76° (ENE) 07:35:18
CUSAT 1 07 Jul 07:35:14 07:40:54 45° 98° (E) 07:45:15 437.405
AUBIESAT-1 07 Jul 07:36:11 07:38:09 15° 58° (ENE) 07:40:19 437.475
BRITE-PL 07 Jul 07:42:57 07:43:27 10° 85° (E) 07:44:14 437.365/2234.400
Cubesat XI-IV 07 Jul 07:56:04 08:01:25 66° 288° (WNW) 08:06:43 437.490
PHONESAT 2.4 07 Jul 07:56:18 07:57:49 13° 153° (SSE) 07:59:24 2401.200-2431.200
Cosmos 2504 07 Jul 08:01:36 08:06:35 20° 299° (WNW) 08:11:22 435.465 / 435.565
O/OREOS (USA 219) 07 Jul 08:04:02 08:08:22 49° 299° (WNW) 08:12:45 437.305
M-CUBED/EXP-1 PRIME 07 Jul 08:12:00 08:15:10 42° 66° (ENE) 08:18:33 437.505
RS-15 07 Jul 08:19:52 08:29:49 33° 19° (NNE) 08:40:17 29.354- 29.394
ISS 07 Jul 08:20:53 08:24:09 90° 48° (NE) 08:27:24 145.825
CANX-2 07 Jul 08:27:07 08:28:39 12° 87° (E) 08:30:25 2200.000
AO-7 07 Jul 08:27:33 08:31:12 13° 321° (NW) 08:34:29 29.400- 29.500
VERMONT LUNAR 07 Jul 08:31:04 08:33:53 31° 175° (S) 08:36:43 437.305
BEESAT 3 07 Jul 08:37:27 08:40:42 22° 320° (NW) 08:43:56 437.485
GOMX 1 07 Jul 08:38:42 08:42:07 25° 93° (E) 08:45:35 467.674
STRAND 1 07 Jul 08:50:53 08:53:20 13° 274° (W) 08:55:30 437.568
AIST 2 07 Jul 08:53:15 08:57:27 56° 310° (NW) 09:01:40 435.215
BEESAT 2 07 Jul 08:54:12 08:57:19 20° 322° (NW) 09:00:25 435.950
DANDE 07 Jul 08:59:36 09:06:04 49° 283° (WNW) 09:10:58 436.750
CUTE-I 07 Jul 09:01:55 09:05:53 21° 299° (WNW) 09:09:41 437.470
SEEDS 07 Jul 09:05:16 09:08:36 22° 92° (E) 09:12:01 437.485
DOVE 4 07 Jul 09:07:48 09:11:30 31° 95° (E) 09:15:15 437.250
AAUSAT CUBESAT 2 07 Jul 09:09:08 09:11:50 17° 90° (E) 09:14:39 437.432
AUBIESAT-1 07 Jul 09:09:25 09:12:37 40° 256° (WSW) 09:15:59 437.475
GONETS M04 07 Jul 09:17:07 09:25:51 76° 95° (E) 09:34:36
BRITE-PL 07 Jul 09:18:27 09:22:45 73° 285° (WNW) 09:26:52 437.365/2234.400
CUSAT 1 07 Jul 09:19:00 09:23:30 23° 288° (WNW) 09:27:04 437.405
Cosmos 2499 07 Jul 09:23:08 09:26:34 15° 78° (ENE) 09:30:27 435.465 / 435.565
HO-68 07 Jul 09:27:18 09:34:14 51° 100° (E) 09:41:12 435.675
CINEMA 3 07 Jul 09:31:09 09:34:39 26° 94° (E) 09:38:16 145.822/145.860
PHONESAT 2.4 07 Jul 09:32:11 09:35:13 30° 169° (S) 09:38:17 2401.200-2431.200
COMPASS 1 07 Jul 09:37:02 09:41:00 38° 97° (E) 09:44:58 437.405
ANTELSAT 07 Jul 09:37:35 09:40:29 18° 64° (ENE) 09:43:29 437.575/2403.000
Cubesat XI-IV 07 Jul 09:38:58 09:40:37 11° 306° (NW) 09:41:59 437.490
TIGRISAT 07 Jul 09:48:06 09:51:22 22° 66° (ENE) 09:54:43 435.000
M-CUBED/EXP-1 PRIME 07 Jul 09:48:47 09:50:23 13° 266° (W) 09:51:52 437.505
ZACube-1 07 Jul 09:49:06 09:50:48 12° 88° (E) 09:52:45 437.345
Oscar 11 07 Jul 09:49:52 09:53:11 21° 92° (E) 09:56:35 145.826/435.025
CUTE 1.7 + AOD 2 07 Jul 09:56:58 10:01:17 85° 284° (WNW) 10:05:35 437.475
ISS 07 Jul 09:57:54 10:00:49 29° 350° (N) 10:03:44 145.825
CUBEBUG 2 07 Jul 09:58:55 10:02:25 25° 94° (E) 10:06:02 437.445
QB50P2 07 Jul 10:00:21 10:02:33 14° 62° (ENE) 10:04:55 145.880/145.840
POPSAT HIP 1 07 Jul 10:00:22 10:02:28 14° 62° (ENE) 10:04:43 437.405
CANX-2 07 Jul 10:00:51 10:05:08 70° 285° (WNW) 10:09:24 2200.000
VERMONT LUNAR 07 Jul 10:07:42 10:10:23 26° 192° (SSW) 10:13:05 437.305
GOMX 1 07 Jul 10:16:40 10:20:21 30° 291° (WNW) 10:23:57 467.674
FUNcube-1 07 Jul 10:22:22 10:25:58 27° 94° (E) 10:29:41 145.935
UNISAT 6 07 Jul 10:28:07 10:32:17 58° 74° (ENE) 10:36:30 437.425
RS-15 07 Jul 10:33:10 10:44:47 70° 48° (NE) 10:56:56 29.354- 29.394
AIST 2 07 Jul 10:35:07 10:36:59 12° 331° (NNW) 10:38:45 435.215
QB50P1 07 Jul 10:37:10 10:40:53 31° 69° (ENE) 10:44:40 145.935-145.965
DELFI C3 07 Jul 10:37:39 10:41:36 47° 99° (E) 10:45:33 145.870
SEEDS 07 Jul 10:40:35 10:44:31 36° 290° (WNW) 10:48:25 437.485
UWE-3 07 Jul 10:42:59 10:47:10 59° 100° (E) 10:51:27 435.000/436.395/437.385
AAUSAT CUBESAT 2 07 Jul 10:43:40 10:47:44 47° 288° (WNW) 10:51:47 437.432
DOVE 4 07 Jul 10:45:48 10:49:13 24° 293° (WNW) 10:52:32 437.250
NANOSAT C BR1 07 Jul 10:49:50 10:53:48 41° 71° (ENE) 10:57:48 145.865
DUCHIFAT 1 07 Jul 10:55:34 10:59:37 46° 72° (ENE) 11:03:40 145.980
BUGSAT 1 07 Jul 10:58:47 11:02:35 34° 69° (ENE) 11:06:24 437.445
POLYITAN 1 07 Jul 11:04:36 11:08:47 62° 74° (ENE) 11:12:58 437.675
ESTCUBE 1 07 Jul 11:06:48 11:08:07 11° 86° (E) 11:09:41 437.505/2401.250
DX 1 07 Jul 11:07:08 11:10:53 28° 95° (E) 11:14:41 434.975-435.025
CINEMA 3 07 Jul 11:08:14 11:11:54 30° 291° (WNW) 11:15:35 145.822/145.860
PHONESAT 2.4 07 Jul 11:09:41 11:12:51 34° 186° (S) 11:16:01 2401.200-2431.200
VELOX 1 07 Jul 11:10:16 11:13:14 18° 91° (E) 11:16:18 145.980
Cosmos 2499 07 Jul 11:11:35 11:18:38 86° 98° (E) 11:25:55 435.465 / 435.565
ANTELSAT 07 Jul 11:12:51 11:16:58 46° 261° (W) 11:21:07 437.575/2403.000
COMPASS 1 07 Jul 11:13:10 11:16:28 22° 294° (WNW) 11:19:41 437.405
HO-68 07 Jul 11:15:24 11:21:48 36° 299° (WNW) 11:28:07 435.675
HUMSAT D 07 Jul 11:16:27 11:20:29 45° 98° (E) 11:24:32 437.325/437.525
GONETS M04 07 Jul 11:16:29 11:23:45 27° 298° (WNW) 11:30:46
UKube-1 07 Jul 11:23:01 11:27:04 38° 97° (E) 11:31:06 .
ZACube-1 07 Jul 11:23:27 11:27:40 66° 285° (WNW) 11:31:57 437.345
TIGRISAT 07 Jul 11:23:59 11:27:58 37° 263° (W) 11:31:55 435.000
Oscar 11 07 Jul 11:25:27 11:29:32 39° 290° (WNW) 11:33:34 145.826/435.025
POPSAT HIP 1 07 Jul 11:33:40 11:37:52 66° 258° (WSW) 11:42:06 437.405
QB50P2 07 Jul 11:33:47 11:38:00 64° 259° (W) 11:42:13 145.880/145.840
ISS 07 Jul 11:34:54 11:37:48 29° 10° (N) 11:40:42 145.825
CUBEBUG 2 07 Jul 11:35:23 11:39:10 32° 290° (WNW) 11:42:58 437.445
CUTE 1.7 + AOD 2 07 Jul 11:36:02 11:36:33 10° 300° (WNW) 11:36:50 437.475
VERMONT LUNAR 07 Jul 11:46:14 11:46:41 10° 207° (SSW) 11:47:05 437.305
AISAT 07 Jul 11:57:29 12:01:50 56° 100° (E) 12:06:10 437.250
50 SAT 07 Jul 11:58:13 12:02:08 68° 102° (ESE) 12:06:02 437.505
FUNcube-1 07 Jul 11:58:35 12:02:18 30° 291° (WNW) 12:06:02 145.935
CUBEBUG 1 07 Jul 12:05:23 12:09:26 37° 97° (E) 12:13:28 437.445
UNISAT 6 07 Jul 12:07:13 12:09:32 14° 271° (W) 12:11:41 437.425
Oscar 19 07 Jul 12:09:52 12:12:55 17° 60° (ENE) 12:16:10 437.125/150
QB50P1 07 Jul 12:13:13 12:16:47 26° 266° (W) 12:20:19 145.935-145.965
DELFI C3 07 Jul 12:13:37 12:16:22 17° 295° (WNW) 12:18:59 145.870
UWE-3 07 Jul 12:20:47 12:23:20 15° 296° (WNW) 12:25:46 435.000/436.395/437.385
NANOSAT C BR1 07 Jul 12:26:44 12:29:51 19° 269° (W) 12:32:52 145.865
DUCHIFAT 1 07 Jul 12:32:50 12:35:42 17° 269° (W) 12:38:27 145.980
BUGSAT 1 07 Jul 12:34:43 12:38:08 23° 267° (W) 12:41:28 437.445
ESTCUBE 1 07 Jul 12:41:05 12:45:40 80° 285° (WNW) 12:50:11 437.505/2401.250
POLYITAN 1 07 Jul 12:43:02 12:45:09 13° 272° (W) 12:47:06 437.675
Gurwin Techsat 1B 07 Jul 12:43:14 12:44:24 11° 55° (NE) 12:45:51 435.225
DX 1 07 Jul 12:43:19 12:47:08 30° 293° (WNW) 12:50:53 434.975-435.025
VELOX 1 07 Jul 12:45:50 12:50:06 48° 289° (WNW) 12:54:20 145.980
RS-15 07 Jul 12:46:09 12:56:47 40° 251° (WSW) 13:07:30 29.354- 29.394
PHONESAT 2.4 07 Jul 12:47:56 12:50:22 18° 202° (SSW) 12:52:46 2401.200-2431.200
YUBILEINY 07 Jul 12:52:20 12:58:42 22° 58° (ENE) 13:05:22 435.215
HUMSAT D 07 Jul 12:52:59 12:55:56 18° 295° (WNW) 12:58:48 437.325/437.525
SPROUT 07 Jul 12:55:00 12:58:59 37° 97° (E) 13:02:58 437.525
UKube-1 07 Jul 12:59:34 13:03:01 23° 295° (WNW) 13:06:22 .
Cosmos 2499 07 Jul 13:08:05 13:13:01 19° 302° (WNW) 13:17:45 435.465 / 435.565
ISS 07 Jul 13:11:14 13:14:29 89° 44° (NE) 13:17:43 145.825
Cosmos 2491 07 Jul 13:23:15 13:26:04 12° 73° (ENE) 13:29:33 435.465 / 435.565
TISAT 1 07 Jul 13:23:42 13:27:46 49° 99° (E) 13:31:50 437.305
50 SAT 07 Jul 13:34:41 13:36:16 12° 297° (WNW) 13:37:42 437.505
AISAT 07 Jul 13:35:07 13:38:02 17° 297° (WNW) 13:40:48 437.250
BEESAT 3 07 Jul 13:38:29 13:40:17 13° 31° (NNE) 13:42:11 437.485
CUBEBUG 1 07 Jul 13:42:07 13:45:37 23° 294° (WNW) 13:49:01 437.445
BEESAT 07 Jul 13:44:08 13:46:53 16° 88° (E) 13:49:49 436.000
Oscar 19 07 Jul 13:46:36 13:51:44 77° 257° (WSW) 13:56:54 437.125/150
AO-7 07 Jul 13:51:47 13:57:14 20° 47° (NE) 14:02:58 29.400- 29.500
BEESAT 2 07 Jul 13:55:07 13:57:17 14° 32° (NNE) 13:59:32 435.950
SWISSCUBE 07 Jul 13:59:29 14:03:17 24° 92° (E) 14:07:11 437.505
ITAMSAT 1 07 Jul 14:05:28 14:10:27 49° 70° (ENE) 14:15:32 435.822/435.867
ITUPSAT 1 07 Jul 14:06:20 14:10:15 25° 93° (E) 14:14:14 437.325
Gurwin Techsat 1B 07 Jul 14:18:14 14:23:29 66° 73° (ENE) 14:28:47 435.225
ESTCUBE 1 07 Jul 14:20:48 14:21:49 11° 302° (WNW) 14:22:37 437.505/2401.250
SPROUT 07 Jul 14:31:30 14:34:53 22° 294° (WNW) 14:38:09 437.525
AIST 1 07 Jul 14:35:45 14:38:04 15° 85° (E) 14:40:35
JAS-2 07 Jul 14:38:25 14:42:50 29° 63° (ENE) 14:47:36 435.910
YUBILEINY 07 Jul 14:48:08 14:56:58 89° 259° (W) 15:05:47 435.215
ISS 07 Jul 14:48:39 14:50:29 14° 226° (SW) 14:52:15 145.825
PCSat 07 Jul 14:50:24 14:54:59 30° 111° (ESE) 14:59:41 145.827
TISAT 1 07 Jul 15:00:24 15:03:12 17° 296° (WNW) 15:05:53 437.305
Cosmos 2491 07 Jul 15:12:41 15:21:19 63° 93° (E) 15:29:59 435.465 / 435.565
BEESAT 3 07 Jul 15:15:01 15:19:05 65° 52° (NE) 15:23:04 437.485
BEESAT 07 Jul 15:20:29 15:25:15 65° 287° (WNW) 15:30:00 436.000
BEESAT 2 07 Jul 15:31:58 15:36:05 76° 53° (NE) 15:40:08 435.950
AIST 2 07 Jul 15:34:51 15:38:27 27° 42° (NE) 15:42:02 435.215
SWISSCUBE 07 Jul 15:36:47 15:41:21 43° 290° (WNW) 15:45:51 437.505
AO-7 07 Jul 15:40:30 15:48:47 73° 68° (ENE) 15:57:09 29.400- 29.500
KKS-1 07 Jul 15:40:49 15:44:58 39° 98° (E) 15:49:08 437.445
HORYU 2 07 Jul 15:42:31 15:46:51 60° 73° (ENE) 15:51:14 437.375
ITUPSAT 1 07 Jul 15:43:47 15:48:19 41° 291° (WNW) 15:52:48 437.325
ITAMSAT 1 07 Jul 15:46:04 15:50:16 24° 268° (W) 15:54:23 435.822/435.867
Cosmos 2504 07 Jul 15:49:13 15:55:33 29° 67° (ENE) 16:02:26 435.465 / 435.565
Gurwin Techsat 1B 07 Jul 16:00:22 16:04:02 18° 271° (W) 16:07:31 435.225
AIST 1 07 Jul 16:10:58 16:15:18 56° 282° (WNW) 16:19:40
JAS-2 07 Jul 16:22:59 16:27:52 40° 264° (W) 16:33:03 435.910
MOZHAYETS 4 07 Jul 16:23:41 16:25:55 14° 87° (E) 16:28:22
STARS 07 Jul 16:24:19 16:28:41 69° 102° (ESE) 16:33:03 437.465
O/OREOS (USA 219) 07 Jul 16:32:24 16:36:50 52° 61° (ENE) 16:41:18 437.305
PCSat 07 Jul 16:33:00 16:38:14 47° 309° (NW) 16:43:29 145.827
SO-50 07 Jul 16:40:00 16:44:43 71° 123° (ESE) 16:49:37 436.795
YUBILEINY 07 Jul 16:46:42 16:52:43 20° 282° (WNW) 16:58:20 435.215
BEESAT 3 07 Jul 16:54:24 16:56:34 14° 249° (WSW) 16:58:33 437.485
CUTE-I 07 Jul 17:07:00 17:10:45 20° 61° (ENE) 17:14:40 437.470
Cosmos 2491 07 Jul 17:11:05 17:18:52 33° 295° (WNW) 17:26:29 435.465 / 435.565
BEESAT 2 07 Jul 17:12:00 17:13:36 12° 250° (WSW) 17:15:01 435.950
AIST 2 07 Jul 17:13:11 17:17:11 41° 241° (WSW) 17:21:04 435.215
KKS-1 07 Jul 17:17:52 17:21:25 23° 295° (WNW) 17:24:52 437.445
HORYU 2 07 Jul 17:21:25 17:23:58 15° 271° (W) 17:26:20 437.375
